Regional Weather Roundup
Issued by NWS Cleveland, OH

Home | Current Version | Previous Version | Text Only | Print | Product List | Glossary Off
Versions: 1 2 3 4 5 6 7 8 9 10 11 12 13 14 15 16 17 18 19 20 21 22 23 24 25 26 27 28 29 30 31 32 33 34 35 36 37 38 39 40 41 42 43 44 45 46 47 48 49 50

276
ASUS41 KCLE 102102
RWRCLE
OHIO REGIONAL WEATHER ROUNDUP
NATIONAL WEATHER SERVICE CLEVELAND, OH
400 PM EST WED FEB 10 2016

NOTE: "FAIR" INDICATES FEW OR NO CLOUDS BELOW 12,000 FEET WITH NO
SIGNIFICANT WEATHER AND/OR OBSTRUCTIONS TO VISIBILITY.

OHZ001>008-015>018-024>027-034-035-043-044-102200-
   NORTHWEST OHIO

CITY           SKY/WX    TMP DP  RH WIND       PRES   REMARKS
DEFIANCE       CLOUDY    22   9  57 NW18      29.92R WCI   7
FINDLAY        CLOUDY    21  14  74 W16       29.89R WCI   7
TOLEDO EXPRESS CLOUDY    22   8  55 W20G26    29.88R WCI   7
TOLEDO EXEC    LGT SNOW  22  12  65 NW15G22   29.89R WCI   9
LIMA           CLOUDY    19  11  70 W18       29.91R WCI   4
$$

OHZ009>014-019>023-028>033-038-089-102200-
   NORTHEAST OHIO

CITY           SKY/WX    TMP DP  RH WIND       PRES   REMARKS
CLE-HOPKINS    LGT SNOW  21  12  68 W16       29.87R WCI   7
CLE-LAKEFRONT  LGT SNOW  23  13  65 W21       29.84R WCI   8
CUY CO. ARPT   CLOUDY    21  14  73 NW16      29.83R WCI   7
LORAIN-ELYRIA  LGT SNOW  20  15  81 NW12      29.86R VSB 3/4 WCI   8
ASHTABULA      LGT SNOW  19  15  84 NW9       29.81R VSB 3/4 WCI   8
AKRON-CANTON   LGT SNOW  20  13  74 W18G25    29.82R WCI   5
WOOSTER        LGT SNOW  20  14  77 W12       29.84R VSB 3/4 WCI   8
MANSFIELD      LGT SNOW  18  15  88 W7        29.84R VSB 3/4 WCI   9
YOUNGSTOWN     SNOW      21  14  74 W15G28    29.79R VSB 1/2 WCI   8
$$

OHZ042-051>053-060>062-070>072-077>081-102200-
  SOUTHWEST OHIO

CITY           SKY/WX    TMP DP  RH WIND       PRES   REMARKS
CINC-COVINGTON CLOUDY    17   5  59 W14       30.02R WCI   3
CINC-LUNKEN    LGT SNOW  18  10  71 W14       30.06S WCI   4
HAMILTON       CLOUDY    18   6  59 W13G20    30.05R WCI   5
DAYTON         CLOUDY    16   6  65 W18       29.98R WCI   0
WRIGHT-PAT AFB NOT AVBL
DAYTON GENERAL CLOUDY    16   3  56 W10G21    29.99R WCI   4
WILMINGTON     CLOUDY    15   7  70 W18       29.97R WCI  -2
$$

OHZ036-037-039>041-045>050-054>059-063>069-073>076-082>088-102200-
  CENTRAL AND SOUTHEAST OHIO

CITY           SKY/WX    TMP DP  RH WIND       PRES   REMARKS
COLUMBUS       FLURRIES  19  10  68 W17       29.94R WCI   4
OSU AIRPORT    FLURRIES  19  11  70 W18       29.93R WCI   4
BOLTON FIELD   CLOUDY    18  10  73 W14G22    29.95R WCI   4
RICKENBACK AFB NOT AVBL
NEWARK         LGT SNOW  20  14  77 MISG      29.92R
MARION         CLOUDY    20   9  62 W15G24    29.90R WCI   6
LANCASTER      LGT SNOW  18  12  77 W14       29.96R VSB 1   WCI   4
ZANESVILLE     CLOUDY    21  12  68 SW12      29.92R WCI   9
NEW PHILLY     CLOUDY    22  14  71 SW10      29.88R HAZE    WCI  11
$$




USA.gov is the U.S. government's official web portal to all federal, state and local government web resources and services.